Location: Newark
(48.6767°N, 1.3256°E)
Time: 08:41:56
(UTC+00:00)

ISS - Pass Details

Date: 23 November 2019
Orbit: 411 x 421 km, 51.6° (Epoch: 13 December)

Event Time Altitude Azimuth Distance (km) Brightness Sun altitude
Rises 18:10:32 0° 223° (SW) 2,348 0.9 -19.9°
Reaches altitude 10° 18:12:42 10° 214° (SW) 1,490 -0.4 -20.3°
Enters shadow 18:15:03 31° 177° (S) 756 -2.5 -20.7°
